TimeMST,TemperatureF,Dew PointF,Humidity,Sea Level PressureIn,VisibilityMPH,Wind Direction,Wind SpeedMPH,Gust SpeedMPH,PrecipitationIn,Events,Conditions,WindDirDegrees,DateUTC
12:53 AM,39.9,5.0,23,30.00,10.0,Calm,Calm,-,N/A,,Clear,0,2013-01-23 07:53:00
1:53 AM,36.0,7.0,30,30.03,10.0,WSW,5.8,-,N/A,,Clear,240,2013-01-23 08:53:00
2:53 AM,34.0,7.0,32,30.05,10.0,WSW,3.5,-,N/A,,Clear,250,2013-01-23 09:53:00
3:53 AM,33.1,9.0,37,30.05,10.0,West,6.9,-,N/A,,Clear,260,2013-01-23 10:53:00
4:53 AM,33.1,8.1,35,30.09,10.0,Calm,Calm,-,N/A,,Clear,0,2013-01-23 11:53:00
5:53 AM,34.0,6.1,31,30.09,10.0,Variable,4.6,-,N/A,,Clear,0,2013-01-23 12:53:00
6:53 AM,30.9,6.1,35,30.13,10.0,WSW,4.6,-,N/A,,Clear,250,2013-01-23 13:53:00
7:53 AM,30.9,8.1,38,30.13,10.0,Variable,5.8,-,N/A,,Clear,0,2013-01-23 14:53:00
8:53 AM,32.0,9.0,38,30.17,10.0,NNW,8.1,-,N/A,,Clear,330,2013-01-23 15:53:00
9:53 AM,35.1,10.9,37,30.17,10.0,NW,4.6,-,N/A,,Clear,310,2013-01-23 16:53:00
10:53 AM,37.0,12.0,36,30.17,10.0,Calm,Calm,-,N/A,,Clear,0,2013-01-23 17:53:00
11:53 AM,36.0,15.1,43,30.12,10.0,ESE,3.5,-,N/A,,Clear,120,2013-01-23 18:53:00
12:53 PM,35.1,15.1,44,30.10,10.0,SSE,4.6,-,N/A,,Clear,150,2013-01-23 19:53:00
1:53 PM,36.0,18.0,48,30.09,10.0,ESE,5.8,-,N/A,,Clear,110,2013-01-23 20:53:00
2:53 PM,36.0,16.0,44,30.09,10.0,ESE,3.5,-,N/A,,Clear,120,2013-01-23 21:53:00
3:53 PM,33.1,19.0,56,30.09,10.0,SSE,5.8,-,N/A,,Clear,150,2013-01-23 22:53:00
4:53 PM,30.9,18.0,59,30.09,10.0,SSE,5.8,-,N/A,,Clear,150,2013-01-23 23:53:00
5:53 PM,28.9,18.0,64,30.07,10.0,Calm,Calm,-,N/A,,Clear,0,2013-01-24 00:53:00
6:53 PM,28.9,18.0,64,30.06,10.0,Calm,Calm,-,N/A,,Clear,0,2013-01-24 01:53:00
7:53 PM,27.0,18.0,69,30.04,10.0,Calm,Calm,-,N/A,,Clear,0,2013-01-24 02:53:00
8:53 PM,27.0,16.0,63,30.02,10.0,Calm,Calm,-,N/A,,Clear,0,2013-01-24 03:53:00
9:53 PM,30.0,17.1,59,29.99,10.0,Calm,Calm,-,N/A,,Clear,0,2013-01-24 04:53:00
10:53 PM,28.0,17.1,63,29.97,10.0,Variable,3.5,-,N/A,,Clear,0,2013-01-24 05:53:00
11:53 PM,33.1,15.1,48,29.96,10.0,Calm,Calm,-,N/A,,Clear,0,2013-01-24 06:53:00